Retour au catalogue

DISKSAT D

ActifScienceVLEO
NORAD 67221·PAYLOAD·🇺🇸 United States

Lancé Dec 18, 2025 depuis Wallops Flight Facility

Loading…

Prochains Passages (prochaines 24 heures)

TLE

FraisSource: Space-Track

Époque: Sep 14, 2026, 06:01 UTC

1 67221U 25305C   26257.25100989  .00001241  00000-0  91259-4 0  9997
2 67221  45.0050 330.8904 0006448 302.3524  57.6728 15.09565627 40771

Suivez DISKSAT D en temps réel avec AllMySat

Download on the App Store